Abetone, Italy 16 day weather forecast

Slopes altitude range 1200 m - 1940m

Number of lifts: 25 Pistes: 70km

In some cases the lift and piste totals shown are for the ski domain (e.g. Three Valleys) rather than individual resort (e.g. Courchevel)

Overview

The 16 day weather forecast is fully updated 4 times every day.

    • Wed 26 JUN 2019
    • Wed 26
    • 24C 34C
    • Thu 27 JUN 2019
    • Thu 27
    • 26C 34C
    • Fri 28 JUN 2019
    • Fri 28
    • 25C 32C
    • Sat 29 JUN 2019
    • Sat 29
    • 23C 32C
    • Sun 30 JUN 2019
    • Sun 30
    • 22C 31C
    • Mon 01 JUL 2019
    • Mon 01
    • 24C 31C
    • Tue 02 JUL 2019
    • Tue 02
    • 22C 29C
    • Wed 03 JUL 2019
    • Wed 03
    • 22C 30C
    • Thu 04 JUL 2019
    • Thu 04
    • 22C 31C
    • Fri 05 JUL 2019
    • Fri 05
    • 21C 29C
    • Sat 06 JUL 2019
    • Sat 06
    • 20C 28C
    • Sun 07 JUL 2019
    • Sun 07
    • 17C 24C
    • Mon 08 JUL 2019
    • Mon 08
    • 19C 31C
    • Tue 09 JUL 2019
    • Tue 09
    • 22C 30C
    • Wed 10 JUL 2019
    • Wed 10
    • 21C 30C
    • Thu 11 JUL 2019
    • Thu 11
    • 21C 31C

Date:

Time Type 0°C level Temp Chill Snow Cloud Speed Gust Dir Press
3:00 4579m 20°C 20_6 0cm 0% 6mph 7mph 1022mB
6:00 4584m 20°C 20_5 0cm 0% 5mph 6mph 1022mB
9:00 4543m 24°C 24_1 0cm 0% 1mph 4mph 1022mB
12:00 4589m 34°C 34_3 0cm 0% 3mph 7mph 1022mB
15:00 4686m 34°C 34_3 0cm 0% 3mph 4mph 1020mB
18:00 4734m 34°C 34_1 0cm 0% 1mph 2mph 1020mB
21:00 4628m 22°C 22_7 0cm 0% 7mph 7mph 1021mB
0:00 4625m 21°C 21_7 0cm 0% 7mph 7mph 1021mB
3:00 4614m 21°C 21_6 0cm 0% 6mph 6mph 1020mB
6:00 4614m 21°C 21_3 0cm 0% 3mph 4mph 1019mB
9:00 4602m 26°C 26_4 0cm 0% 4mph 2mph 1019mB
12:00 4683m 34°C 34_6 0cm 0% 6mph 5mph 1018mB
15:00 4689m 34°C 34_5 0cm 0% 5mph 5mph 1016mB
18:00 4676m 34°C 34_2 0cm 0% 2mph 3mph 1014mB
21:00 4540m 23°C 23_4 0cm 0% 4mph 5mph 1015mB
0:00 4573m 22°C 22_3 0cm 0% 3mph 4mph 1014mB
3:00 4619m 21°C 21_3 0cm 0% 3mph 4mph 1013mB
6:00 4716m 21°C 21_2 0cm 0% 2mph 2mph 1014mB
9:00 4724m 25°C 25_4 0cm 0% 4mph 3mph 1014mB
12:00 4716m 32°C 32_6 0cm 0% 6mph 4mph 1014mB
15:00 4764m 33°C 33_3 0cm 4% 3mph 3mph 1013mB
18:00 4810m 33°C 33_2 0cm 2% 2mph 3mph 1013mB
21:00 4714m 22°C 22_4 0cm 0% 4mph 5mph 1014mB
0:00 4635m 21°C 21_6 0cm 0% 6mph 6mph 1015mB
3:00 4635m 20°C 20_6 0cm 0% 6mph 6mph 1016mB
6:00 4725m 19°C 19_5 0cm 0% 5mph 6mph 1016mB
9:00 4728m 23°C 23_2 0cm 0% 2mph 3mph 1017mB
12:00 4765m 32°C 32_4 0cm 0% 4mph 5mph 1017mB
15:00 4787m 32°C 32_4 0cm 3% 4mph 3mph 1016mB
18:00 4909m 32°C 32_2 0cm 3% 2mph 3mph 1016mB
21:00 4966m 20°C 20_6 0cm 0% 6mph 6mph 1017mB
0:00 4910m 20°C 20_6 0cm 0% 6mph 6mph 1018mB
3:00 4896m 19°C 19_6 0cm 0% 6mph 6mph 1017mB
6:00 4864m 19°C 19_4 0cm 0% 4mph 4mph 1018mB
9:00 4850m 22°C 22_3 0cm 0% 3mph 3mph 1019mB
12:00 4840m 31°C 31_6 0cm 0% 6mph 4mph 1018mB
15:00 4862m 31°C 31_4 0cm 0% 4mph 4mph 1017mB
18:00 4873m 31°C 31_2 0cm 0% 2mph 3mph 1017mB
21:00 4818m 21°C 21_4 0cm 0% 4mph 4mph 1018mB
0:00 4781m 20°C 20_4 0cm 3% 4mph 4mph 1018mB
3:00 4736m 20°C 20_3 0cm 40% 3mph 4mph 1018mB
6:00 4694m 20°C 20_0 0cm 32% 0mph 1mph 1018mB
9:00 4620m 24°C 24_5 0cm 0% 5mph 3mph 1018mB
12:00 4632m 31°C 31_7 0cm 11% 7mph 5mph 1017mB
15:00 4667m 31°C 31_6 0cm 19% 6mph 5mph 1015mB
18:00 4688m 31°C 31_3 0cm 9% 3mph 4mph 1014mB
21:00 4543m 19°C 19_3 0cm 0% 3mph 4mph 1016mB
0:00 4499m 18°C 18_3 0cm 19% 3mph 4mph 1016mB
3:00 4510m 18°C 18_4 0cm 100% 4mph 4mph 1015mB
6:00 4395m 17°C 17_1 0cm 84% 1mph 1mph 1015mB
9:00 4098m 22°C 22_5 0cm 0% 5mph 4mph 1015mB
12:00 4115m 29°C 29_7 0cm 0% 7mph 6mph 1014mB
15:00 4660m 29°C 29_6 0cm 0% 6mph 5mph 1013mB
18:00 4526m 29°C 29_3 0cm 0% 3mph 4mph 1013mB
21:00 4408m 18°C 18_3 0cm 0% 3mph 3mph 1015mB
0:00 4282m 18°C 18_3 0cm 0% 3mph 4mph 1015mB
3:00 4229m 17°C 17_4 0cm 0% 4mph 4mph 1014mB
6:00 4168m 17°C 17_2 0cm 0% 2mph 2mph 1015mB
9:00 4117m 22°C 22_4 0cm 3% 4mph 2mph 1016mB
12:00 4261m 30°C 30_6 0cm 2% 6mph 4mph 1015mB
15:00 4265m 31°C 31_5 0cm 0% 5mph 4mph 1014mB
18:00 4272m 31°C 31_2 0cm 2% 2mph 3mph 1015mB
21:00 4143m 20°C 20_5 0cm 10% 5mph 6mph 1016mB
0:00 4236m 18°C 18_5 0cm 52% 5mph 6mph 1016mB
3:00 4177m 18°C 18_5 0cm 54% 5mph 5mph 1016mB
6:00 4204m 17°C 17_3 0cm 31% 3mph 4mph 1016mB
9:00 4128m 22°C 22_3 0cm 26% 3mph 2mph 1017mB
12:00 4131m 31°C 31_7 0cm 36% 7mph 5mph 1016mB
15:00 4218m 31°C 31_6 0cm 1% 6mph 5mph 1015mB
18:00 4205m 31°C 31_2 0cm 5% 2mph 3mph 1015mB
21:00 4254m 19°C 19_2 0cm 25% 2mph 2mph 1016mB
0:00 4280m 18°C 18_2 0cm 12% 2mph 3mph 1016mB
3:00 4380m 17°C 17_2 0cm 0% 2mph 2mph 1015mB
6:00 4334m 16°C 16_1 0cm 0% 1mph 1mph 1016mB
9:00 4331m 21°C 21_5 0cm 0% 5mph 4mph 1017mB
12:00 4362m 29°C 29_6 0cm 0% 6mph 6mph 1017mB
15:00 4479m 30°C 30_7 0cm 0% 7mph 7mph 1015mB
18:00 4537m 30°C 30_4 0cm 0% 4mph 5mph 1014mB
21:00 4520m 18°C 18_1 0cm 0% 1mph 2mph 1015mB
0:00 4444m 17°C 17_1 0cm 0% 1mph 2mph 1015mB
Afternoon 0mm 0 4569m 28°C 28_9 0cm 3% 9mph 10mph 1011mB
Morning 0mm 0 4759m 19°C 19_11 0cm 5% 11mph 19mph 1016mB
Afternoon 0mm 0 4893m 24°C 24_12 0cm 1% 12mph 18mph 1019mB
Morning 0mm 0 4759m 16°C 16_8 0cm 0% 8mph 11mph 1018mB
Afternoon 0mm 0 4654m 31°C 31_5 0cm 19% 5mph 3mph 1017mB
Morning 0mm 0 4570m 18°C 18_2 0cm 1% 2mph 3mph 1016mB
Afternoon 0mm 0 4536m 30°C 30_7 0cm 0% 7mph 8mph 1016mB
Morning 0.0208333mm 0.0625 4468m 17°C 17_1 0cm 1% 1mph 2mph 1016mB
Afternoon 0mm 0 4408m 30°C 30_8 0cm 1% 8mph 12mph 1014mB
Morning 0mm 0 4426m 18°C 18_1 0cm 0% 1mph 2mph 1013mB
Afternoon 0mm 0 4338m 31°C 31_5 0cm 0% 5mph 5mph 1012mB
Morning 0.0208333mm 0.0625 4130m 17°C 17_2 0cm 2% 2mph 3mph 1008mB

16 day outlook at a glance

Forecast issued: 6/26/2019 8:22:59 AM

Chat

Your comments and questions. In a resort? Let us know what it's like!


Characters left 250

For terms and conditions see Readers Comments on the Cookie and privacy policy page.